ONEWEB-0087, 45451

Orbit data source: Space-Track

ONEWEB-0087, 45451 is a payload satellite owned by One Web (UK) in LEO that was launched on Sat, 21 Mar 2020 UTC via a SOYUZ-2-1B launch vehicle from the Tyuratam Missile And Space Complex (TTMTR). Payload-class satellites include a variety of spacecraft equipped with specific instruments for various scientific and technological missions. These include communications satellites like Starlink; space stations such as the ISS; scientific satellites like the Hubble; Earth observation satellites from companies like Planet Labs, Umbra, and HawkEye 360; GPS; miniature CubeSats for education and research; and military/defense satellites.

Loading next visibility...
Identifier
45451, 2020-020AD
Orbit
LEO
Last TLE update
16 hours ago
Origin
Manufacturer
One Web
Mission
Operational Commercial Communications
Bus & Motor
ARROW, Unknown motor
Mass
148 kg wet, ~140 kg dry
Launch date (UTC)
2020-03-21 (5 years ago)
Launch vehicle
SOYUZ-2-1B
Launch site
Tyuratam Missile And Space Complex (TTMTR)
Object type
Payload
Rocket body
Debris
Shape & HBR
Trap Box + 2 Pan, 5 m
Radar Cross Section
2.957 m², Large (>1 m²)

Expand to show TLE details & history

TLE from 16 hours ago
0 ONEWEB-0087
1 45451U 20020AD  25181.76093137 -.00000202  00000-0 -60566-3 0  9998
2 45451  87.8831  91.0561 0001795  83.1506 276.9826 13.11415158256523
Epoch: 2025-06-30T18:15Z
TLE epoch observation values (Epoch: 2025-06-30T18:15:44.47Z)
Latitude
-0.00003°
Longitude
-101.9453°
Altitude
1,220.413 km
Speed
7.244 km/s
True Right ascension
06h 04m 13s
True Declination
0° 00' 00"
Sunlit
Object was in daylight at epoch
Visualization orbit readout
Latitude
-44.20862°
Longitude
79.97375°
Altitude
1,235.825 km
Speed
7.235 km/s
Apparent Right ascension
14h 22m 00s
Apparent Declination
-63° 48' 51"
Sunlit
Object is in full shadow
Visualization observer readout
Local Sidereal Time
21:41:23
Azimuth
215.03° SW
Elevation
-43.685°
Doppler factor
1
Orbital elements
Apogee altitude
1,216.171 km
Perigee altitude
1,213.445 km
Semi-major axis
7,592.945 km
Eccentricity
0.00018
Inclination
87.8831°
RAAN
91.0561°
Arg. of periapsis
83.1506°
True anomaly
Unknown
Mean anomaly
276.9826°
Eccentric anomaly
Unknown
Mean motion
3.28041 °/min
Orbital period
109.74 mins
BSTAR
-0.00060566
Loading maneuver chart data...
Loading SW <> Apogee altitude chart data...
Loading historical data...
Loading historical data...
Loading historical data...
Loading historical data...
Loading historical data...
Loading historical data...
Loading historical data...

ONEWEB-0087 Visibility forecast

Observer location: undefined°, undefined°

Span
Click to sort rows by Start time (UTC) header in descending order
Start Az.
Max El. time (UTC)
Max El. Az.
Max El.
End time (UTC)
End Az.
13 mins2025-07-01 18:09:59.901Z168.715° S2025-07-01 18:15:59.901Z100.408° ESE43.643°2025-07-01 18:22:59.901Z5.107° NNE
8 mins2025-07-01 20:02:59.901Z250.081° W2025-07-01 20:06:59.901Z287.756° WNW18.494°2025-07-01 20:10:59.901Z324.05° NNW
13 mins2025-07-02 05:39:59.901Z10.258° NNE2025-07-02 05:45:59.901Z90.443° ESE40.471°2025-07-02 05:52:59.901Z164.532° S
9 mins2025-07-02 07:30:59.901Z325.895° NNW2025-07-02 07:34:59.901Z286.204° WNW22.749°2025-07-02 07:39:59.901Z237.749° WSW
|